Location: Lafig�re
(44.4503°N, 4.0357°E)
Time: 17:34:46
(UTC+00:00)

S-56A Canister/Altair - Pass Details

Date: 22 January 2021
Orbit: 631 x 2501 km, 38.9° (Epoch: 04 March)

Event Time Altitude Azimuth Distance (km) Brightness Sun altitude
Rises 06:10:17 0° 268° (W) 3,024 - -11.0°
Reaches altitude 10° 06:12:29 10° 260° (W) 2,209 - -10.7°
Exits shadow 06:12:35 11° 260° (W) 2,178 9.3 -10.7°
Maximum altitude 06:17:13 41° 190° (S) 1,230 8.6 -9.9°
Drops below altitude 10° 06:23:41 10° 123° (ESE) 3,026 12.1 -8.8°
Sets 06:27:11 0° 117° (ESE) 4,299 13.6 -8.2°
